Regional Weather Roundup
Issued by NWS

Home | Current Version | Previous Version | Graphics & Text | Print | Product List | Glossary On
Versions: 1 2 3 4 5 6 7 8 9 10 11 12 13 14 15 16 17 18 19 20 21 22 23 24 25 26 27 28 29 30 31 32 33 34 35 36 37 38 39 40 41 42 43 44 45 46 47 48 49 50
645
ASUS45 KBOI 290110
RWRID

IDAHO REGIONAL WEATHER ROUNDUP
NATIONAL WEATHER SERVICE BOISE ID
700 PM MDT SUN MAY 28 2017

NOTE: "FAIR" INDICATES FEW OR NO CLOUDS BELOW 12000 FEET
WITH NO SIGNIFICANT WEATHER AND/OR OBSTRUCTIONS TO VISIBILITY

IDZ012-014-290200-
SOUTHWEST IDAHO


CITY           SKY/WX    TMP DP  RH WIND       PRES   REMARKS
BOISE          SUNNY     83  32  16 CALM      30.08F
CALDWELL       SUNNY     84  41  21 W8        30.08F
MOUNTAIN HOME  SUNNY     83  29  14 SE3       30.08F
$$

IDZ016-017-290200-
SOUTHCENTRAL IDAHO


CITY           SKY/WX    TMP DP  RH WIND       PRES   REMARKS
BURLEY         SUNNY     75  37  25 NE3       30.15F
JEROME         SUNNY     76  32  20 SE6       30.16F
TWIN FALLS     SUNNY     75  39  27 NE5       30.16F
$$

IDZ019>023-290200-
SOUTHEAST IDAHO


CITY           SKY/WX    TMP DP  RH WIND       PRES   REMARKS
IDAHO FALLS    MOSUNNY   71  36  27 NW5       30.20F
POCATELLO      MOSUNNY   74  36  25 NW3       30.19F
REXBURG        SUNNY     71  32  23 SW7       30.19F
$$

IDZ006-010-011-018-031-032-290200-
CENTRAL IDAHO MOUNTAINS


CITY           SKY/WX    TMP DP  RH WIND       PRES   REMARKS
MCCALL         SUNNY     73  33  23 VRB7      30.19F
HAILEY         MOSUNNY   70  45  40 SE6       30.22F
STANLEY          N/A     69  25  19 VRB6      30.27F
SALMON         SUNNY     77  37  24 SW3       30.09F
CHALLIS        MOSUNNY   76  35  22 N7        30.17F
$$

IDZ002-004-006-007-026-290200-
NORTHERN IDAHO


CITY           SKY/WX    TMP DP  RH WIND       PRES   REMARKS
LEWISTON       SUNNY     89  42  19 NE6       30.02F
LOWELL           N/A     75  46  35 CALM      30.02F
COEUR D`ALENE  SUNNY     83  43  24 CALM      30.08F
MULLAN PASS    LGT RAIN  56  35  45 VRB5      30.29S
$$




USA.gov is the U.S. government's official web portal to all federal, state and local government web resources and services.